Home   Weather   Gustavia   Past weeks

Past Weather in Gustavia, Saint Barthélemy — Yesterday and Last 2 Weeks

Now
81 °F

Scattered clouds.


Feels Like: 85 °F
Forecast: 80 / 83 °F
Wind: 15 mph from East

Location: Juliana Airport - Saint Maarten

Current Time: Dec 11, 2016 at 7:57:24 am

Latest Report: Dec 11, 2016 at 7:00 am


Visibility: N/A

Pressure: 30.07 "Hg

Humidity: 79%

Dew Point: 73 °F

Location of GustaviaLocation

Past Weather in Gustavia — Graph

°F

Gustavia Temperature Yesterday

Maximum temperature yesterday: 84 °F (at 10:00 am)
Minimum temperature yesterday: 81 °F (at 12:00 am)
Average temperature yesterday: 82 °F

High & Low Weather Summary for the Past Weeks

 TemperatureHumidityPressure
High86 °F (Dec 2, 2:00 pm)100% (Nov 28, 11:00 am)30.09 "Hg (Nov 28, 11:00 am)
Low72 °F (Nov 28, 1:00 pm)62% (Nov 26, 10:00 am)29.71 "Hg (Nov 28, 5:00 pm)
Average81 °F80%29.95 "Hg
* Reported Nov 26 6:00 am — Dec 11 6:00 am, Gustavia, Weather by CustomWeather, © 2016

Note: Actual official high and low records may vary slightly from our data, if they occured in-between our weather recording intervals... More about our weather records

Advertising

Gustavia Weather History for the Previous 24 Hours

Scroll right to see more
 ConditionsComfort  
Time TempWeatherWind HumidityBarometerVisibility
6:00 am
Sun, Dec 11
81 °FPassing clouds.16 mph74%30.04 "HgN/A
5:00 am81 °FPassing clouds.13 mph79%30.04 "HgN/A
4:00 am81 °FPassing clouds.14 mph74%30.01 "HgN/A
2:00 am81 °FPassing clouds.18 mph79%30.04 "HgN/A
1:00 am81 °FPassing clouds.18 mph79%30.07 "HgN/A
12:00 am81 °FPassing clouds.18 mph84%30.07 "HgN/A
10:00 pm
Sat, Dec 10
81 °FPassing clouds.14 mph89%30.09 "HgN/A
9:00 pm81 °FPassing clouds.13 mph84%30.07 "HgN/A
8:00 pm81 °FPassing clouds.9 mph84%30.07 "HgN/A
7:00 pm81 °FPassing clouds.12 mph84%30.04 "HgN/A
6:00 pm81 °FPassing clouds.12 mph89%30.04 "HgN/A
5:00 pm81 °FSprinkles. Partly sunny.8 mph84%30.04 "HgN/A
4:00 pm82 °FScattered clouds.12 mph79%30.01 "HgN/A
3:00 pm84 °FScattered clouds.9 mph70%30.01 "HgN/A
2:00 pm84 °FScattered clouds.9 mph74%30.01 "HgN/A
1:00 pm84 °FScattered clouds.10 mph74%30.04 "HgN/A
12:00 pm82 °FPassing clouds.12 mph74%30.07 "HgN/A
11:00 am84 °FPassing clouds.12 mph70%30.09 "HgN/A
10:00 am84 °FPassing clouds.9 mph70%30.09 "HgN/A
9:00 am82 °FWarm.5 mph74%30.09 "HgN/A
8:00 am82 °FScattered clouds.9 mph74%30.09 "HgN/A
7:00 am81 °FScattered clouds.8 mph79%30.07 "HgN/A
Weather by CustomWeather, © 2016

See weather overviewHow to use our weather pages